Weather History for KOEO - August, 2013

Change the Weather History Date:

Sunday, August 18, 2013

  Actual Average (KMSP) Record (KMSP)
Temperature  
Mean Temperature 69 °F 71 °F  
Max Temperature 83 °F 80 °F 98 °F (1976)
Min Temperature 56 °F 62 °F 41 °F (1977)
Degree Days  
Heating Degree Days 0 0  
Month to date heating degree days 0  
Since 1 June heating degree days 49  
Since 1 July heating degree days 5  
Cooling Degree Days 4 6  
Month to date cooling degree days 134  
Year to date cooling degree days 610  
Since 1 June cooling degree days 568  
Growing Degree Days 19 (Base 50)    
Moisture  
Dew Point 56 °F    
Average Humidity 64    
Maximum Humidity 88    
Minimum Humidity 37    
Precipitation  
Precipitation 0.00 in 0.14 in 2.26 in (1907)
Month to date precipitation 2.63  
Year to date precipitation 20.50  
Snow  
Snow 0.00 in 0.00 in 0.00 in ()
Month to date snowfall 0.0  
Since 1 June snowfall 0.0  
Since 1 July snowfall 0.0  
Snow Depth -    
Sea Level Pressure  
Sea Level Pressure 30.12 in    
Wind  
Wind Speed 5 mph (South)    
Max Wind Speed 16 mph    
Max Gust Speed 26 mph    
Visibility 10 miles    
Events      
T = Trace of Precipitation, MM = Missing Value Source: NWS Daily Summary

Daily Weather History Graph

Daily Weather History Graph

Search for Another Location

Airport or City:

Trip Planner

Search our weather history database for the weather conditions in past years. The results will help you decide how hot, cold, wet, or windy it might be!

Date:

Astronomy

Aug. 18, 2013 Rise Set
Actual Time 6:15 AM CDT 8:12 PM CDT
Civil Twilight 5:43 AM CDT 8:44 PM CDT
Nautical Twilight 5:04 AM CDT 9:22 PM CDT
Astronomical Twilight 4:21 AM CDT 10:05 PM CDT
Moon 6:21 PM CDT (8/18) 3:21 AM CDT (8/18)
Length of Visible Light 15h 00m
Length of Day
13h 56m
Waxing Gibbous, 92% of the Moon is Illuminated
Aug 18
Waxing Gibbous
Aug 20
Full
Aug 28
Last Quarter
Sep 5
New
Sep 12
First Quarter

Hourly Weather History & Observations

Time (CDT) Temp. Heat Index Dew Point Humidity Pressure Visibility Wind Dir Wind Speed Gust Speed Precip Events Conditions
12:15 AM 62.1 °F - 55.2 °F 78% 30.16 in 10.0 mi Calm Calm - N/A   Clear
12:35 AM 62.2 °F - 55.2 °F 78% 30.16 in 10.0 mi South 4.6 mph - N/A   Clear
12:55 AM 61.5 °F - 54.9 °F 79% 30.16 in 10.0 mi Calm Calm - N/A   Clear
1:15 AM 61.3 °F - 54.7 °F 79% 30.16 in 10.0 mi South 3.5 mph - N/A   Clear
1:35 AM 60.8 °F - 54.7 °F 80% 30.16 in 10.0 mi Calm Calm - N/A   Clear
1:55 AM 60.4 °F - 54.9 °F 82% 30.15 in 10.0 mi Calm Calm - N/A   Clear
2:15 AM 60.1 °F - 54.7 °F 82% 30.16 in 10.0 mi South 3.5 mph - N/A   Clear
2:35 AM 59.5 °F - 54.5 °F 83% 30.16 in 10.0 mi South 3.5 mph - N/A   Clear
2:55 AM 59.5 °F - 54.7 °F 84% 30.16 in 10.0 mi SSE 3.5 mph - N/A   Clear
3:15 AM 59.9 °F - 54.7 °F 83% 30.16 in 10.0 mi Calm Calm - N/A   Clear
3:35 AM 59.9 °F - 54.5 °F 82% 30.16 in 10.0 mi South 4.6 mph - N/A   Clear
3:55 AM 58.6 °F - 54.5 °F 86% 30.16 in 10.0 mi South 4.6 mph - N/A   Clear
4:15 AM 59.0 °F - 54.3 °F 84% 30.16 in 10.0 mi South 4.6 mph - N/A   Clear
4:35 AM 59.5 °F - 54.5 °F 83% 30.16 in 10.0 mi South 3.5 mph - N/A   Clear
4:55 AM 59.0 °F - 54.0 °F 83% 30.17 in 10.0 mi South 4.6 mph - N/A   Clear
5:15 AM 58.6 °F - 54.0 °F 84% 30.17 in 10.0 mi SSE 3.5 mph - N/A   Clear
5:35 AM 58.3 °F - 53.8 °F 85% 30.16 in 10.0 mi SSW 3.5 mph - N/A   Clear
5:55 AM 58.8 °F - 53.8 °F 83% 30.16 in 10.0 mi South 3.5 mph - N/A   Clear
6:15 AM 58.1 °F - 53.6 °F 85% 30.17 in 10.0 mi South 5.8 mph - N/A   Clear
6:35 AM 56.8 °F - 53.1 °F 87% 30.18 in 10.0 mi Calm Calm - N/A   Clear
6:55 AM 57.2 °F - 53.8 °F 88% 30.18 in 10.0 mi South 3.5 mph - N/A   Clear
7:15 AM 58.6 °F - 55.0 °F 88% 30.18 in 10.0 mi South 5.8 mph - N/A   Clear
7:35 AM 60.8 °F - 55.9 °F 84% 30.18 in 10.0 mi South 4.6 mph - N/A   Clear
7:55 AM 62.6 °F - 56.5 °F 80% 30.18 in 10.0 mi South 3.5 mph - N/A   Clear
8:15 AM 64.4 °F - 56.8 °F 76% 30.18 in 10.0 mi South 5.8 mph - N/A   Clear
8:35 AM 65.5 °F - 57.2 °F 75% 30.18 in 10.0 mi South 5.8 mph - N/A   Clear
8:55 AM 67.1 °F - 57.4 °F 71% 30.18 in 10.0 mi South 4.6 mph - N/A   Clear
9:15 AM 69.8 °F - 57.9 °F 66% 30.18 in 10.0 mi South 5.8 mph - N/A   Clear
9:35 AM 71.2 °F - 57.0 °F 61% 30.18 in 10.0 mi SSW 6.9 mph - N/A   Clear
9:55 AM 72.7 °F - 57.6 °F 59% 30.17 in 10.0 mi South 8.1 mph - N/A   Clear
10:15 AM 74.1 °F - 57.6 °F 56% 30.17 in 10.0 mi South 8.1 mph - N/A   Clear
10:35 AM 74.8 °F - 57.6 °F 55% 30.17 in 10.0 mi South 10.4 mph - N/A   Clear
10:55 AM 76.6 °F - 56.7 °F 50% 30.16 in 10.0 mi South 11.5 mph - N/A   Clear
11:15 AM 78.1 °F - 57.4 °F 49% 30.16 in 10.0 mi SSW 12.7 mph 16.1 mph N/A   Clear
11:35 AM 79.2 °F - 55.6 °F 44% 30.15 in 10.0 mi South 10.4 mph 16.1 mph N/A   Clear
11:55 AM 79.3 °F - 54.0 °F 41% 30.15 in 10.0 mi SSW 9.2 mph 17.3 mph N/A   Clear
12:15 PM 79.0 °F - 53.6 °F 41% 30.14 in 10.0 mi SSW 16.1 mph 20.7 mph N/A   Scattered Clouds
12:35 PM 79.9 °F - 53.6 °F 40% 30.13 in 10.0 mi SSW 13.8 mph 23.0 mph N/A   Scattered Clouds
12:55 PM 80.1 °F 80.0 °F 53.6 °F 40% 30.12 in 10.0 mi SSW 12.7 mph 26.5 mph N/A   Scattered Clouds
1:15 PM 80.2 °F 80.2 °F 54.3 °F 41% 30.11 in 10.0 mi SSW 13.8 mph 19.6 mph N/A   Clear
1:35 PM 81.0 °F 80.8 °F 55.8 °F 42% 30.10 in 10.0 mi SW 16.1 mph 24.2 mph N/A   Scattered Clouds
1:55 PM 81.1 °F 80.9 °F 55.4 °F 41% 30.10 in 10.0 mi South 11.5 mph 20.7 mph N/A   Scattered Clouds
2:15 PM 81.9 °F 81.2 °F 54.3 °F 39% 30.11 in 10.0 mi SSW 15.0 mph 18.4 mph N/A   Scattered Clouds
2:35 PM 81.3 °F 80.7 °F 53.8 °F 38% 30.11 in 10.0 mi SSW 12.7 mph 20.7 mph N/A   Scattered Clouds
2:55 PM 82.6 °F 81.6 °F 53.8 °F 37% 30.11 in 10.0 mi South 13.8 mph 23.0 mph N/A   Scattered Clouds
3:15 PM 81.9 °F 81.1 °F 54.0 °F 38% 30.11 in 10.0 mi SSW 12.7 mph 19.6 mph N/A   Scattered Clouds
3:35 PM 82.0 °F 81.3 °F 54.1 °F 38% 30.11 in 10.0 mi SW 13.8 mph 20.7 mph N/A   Mostly Cloudy
3:55 PM 82.9 °F 82.0 °F 54.7 °F 38% 30.10 in 10.0 mi SSW 12.7 mph 21.9 mph N/A   Scattered Clouds
4:15 PM 82.8 °F 81.7 °F 54.1 °F 37% 30.09 in 10.0 mi SW 13.8 mph 20.7 mph N/A   Mostly Cloudy
4:35 PM 82.2 °F 81.5 °F 54.9 °F 39% 30.08 in 10.0 mi South 12.7 mph - N/A   Scattered Clouds
4:55 PM 82.4 °F 81.7 °F 55.4 °F 39% 30.07 in 10.0 mi South 11.5 mph 17.3 mph N/A   Scattered Clouds
5:15 PM 81.7 °F 81.3 °F 55.8 °F 41% 30.07 in 10.0 mi South 11.5 mph 20.7 mph N/A   Scattered Clouds
5:35 PM 81.5 °F 81.1 °F 55.6 °F 41% 30.07 in 10.0 mi SSW 11.5 mph 16.1 mph N/A   Scattered Clouds
5:55 PM 81.0 °F 80.7 °F 55.0 °F 41% 30.06 in 10.0 mi SSW 9.2 mph - N/A   Scattered Clouds
6:15 PM 79.9 °F - 56.3 °F 44% 30.06 in 10.0 mi South 9.2 mph - N/A   Mostly Cloudy
6:35 PM 78.8 °F - 56.1 °F 46% 30.06 in 10.0 mi SSW 9.2 mph - N/A   Scattered Clouds
6:55 PM 77.7 °F - 56.1 °F 47% 30.05 in 10.0 mi SSW 8.1 mph - N/A   Clear
7:15 PM 76.3 °F - 56.8 °F 51% 30.05 in 10.0 mi South 5.8 mph - N/A   Clear
7:35 PM 74.8 °F - 57.6 °F 55% 30.06 in 10.0 mi South 4.6 mph - N/A   Mostly Cloudy
7:55 PM 73.9 °F - 58.1 °F 58% 30.05 in 10.0 mi South 3.5 mph - N/A   Scattered Clouds
8:15 PM 71.2 °F - 58.5 °F 64% 30.06 in 10.0 mi South 4.6 mph - N/A   Clear
8:35 PM 69.3 °F - 58.5 °F 68% 30.04 in 10.0 mi SSE 6.9 mph - N/A   Clear
8:55 PM 68.5 °F - 58.3 °F 70% 30.04 in 10.0 mi SSE 6.9 mph - N/A   Clear
9:15 PM 68.0 °F - 58.3 °F 71% 30.04 in 10.0 mi SSE 6.9 mph - N/A   Clear
9:35 PM 66.9 °F - 58.6 °F 75% 30.04 in 10.0 mi SSE 4.6 mph - N/A   Clear
9:55 PM 66.9 °F - 58.6 °F 75% 30.04 in 10.0 mi SSE 3.5 mph - N/A   Clear
10:15 PM 66.2 °F - 59.0 °F 78% 30.05 in 10.0 mi SSE 4.6 mph - N/A   Clear
10:35 PM 66.0 °F - 59.0 °F 78% 30.05 in 10.0 mi SSE 3.5 mph - N/A   Clear
10:55 PM 65.1 °F - 58.6 °F 79% 30.06 in 10.0 mi Calm Calm - N/A   Clear
11:15 PM 65.3 °F - 59.0 °F 80% 30.06 in 10.0 mi Calm Calm - N/A   Clear
11:35 PM 64.9 °F - 59.0 °F 81% 30.05 in 10.0 mi SSE 3.5 mph - N/A   Mostly Cloudy
11:55 PM 65.5 °F - 59.0 °F 80% 30.06 in 10.0 mi Calm Calm - N/A   Mostly Cloudy